Volver al catálogo

COSMOS 2456

GLONASS

ActivoNavegaciónMEO
NORAD 36111·PAYLOAD·🇷🇺 Russia

Lanzado Dec 14, 2009 desde Baikonur Cosmodrome

Loading…

Próximos Pases (próximas 24 horas)

TLE

ActualizadoSource: CelesTrak SupGP

Época: Sep 12, 2026, 23:59 UTC

1 36111C 09070A   26255.99979167  .00000000  00000+0  00000+0 0  2558
2 36111  65.0678  67.9789 0001443 347.6548 315.8235  2.13103838    18

Sigue COSMOS 2456 en tiempo real con AllMySat

Download on the App Store